ASIASAT 9 (42942 NORAD) Tracking and Keplerian Element Data

This shows tracking and keplerian element data for the satellite.

Feedback or suggestion? Click here.




ElementValue
Catalog42942
NameASIASAT 9
Epoch Orbit537
Epoch Day75.29468359
Epoch Year2019
RAAN173.8699
Inclination0.0173
Eccentricity0.0002353
Argument of Perigee167.5421
Mean Anonmoly60.3574
Mean Motion1.0027085
Decay Rate-3.75E-06
L11 42942U 17057A 19075.29468359 -.00000375 00000-0 00000+0 0 9994
L22 42942 0.0173 173.8699 0002353 167.5421 60.3574 1.00270850 5379

Live tracking and technical data element details for ASIASAT 9 (NORAD 42942). ASIASAT 9 can be tracked NOW for your location showing map with azimuth and elevation plus other details from your city location.

Track the satellite on the map from your city or location and see movement details for azimuth, elevation, latitude, longitude, range, height, and movement on the map or in text.







IsCatalogInMostPopularTable: catalog: 42942, numindb: 222
Update: records affected: 1



GetName: 42942 ASIASAT 9

Hit Count: updated at: Wed, 20 Mar 2019 05:23:34 GMT